DLH3C YSSY-EDDN

Flight info

Callsign DLH3C
Flight time N/A
Altitude 34000
Route KADOM A576 ATMAP DCT TPG/N0479F380 A464 SJ G579 VJB Y342 AROSO Y513 KALIL Y501 RINBA Y502 DUBAX R325 UPSAB L515 OBMOG M770 KAKID M875 DOMET/N0477F400 M875 DI/N0475F380 N644 DOBAT/N0471F400 N644 LEMOD A909 BIBIM B450 MARAL N50 LASKA/K0882F400 B450 KZ R227 RISKA B494 OLGIN M991 NIROV L984 DIBED/N0471F400 L984 PADKA DCT BEKVI DCT OKG N869 NIBIL STAR
Aircraft A338/H-SADE1E2E3GHIJ3J5M1P2RWXY/LB2D1

Departure

Time 2026-04-24 14:18
Airport Sydney Kingsford Smith International Airport (YSSY)

Arrival

Time N/A
Airport Nuremberg Airport (EDDN)
Time Latitude Longitude Altitude Speed Heading
2026-04-24 13:54 -33.93092 151.17625 35 ft 0 kts 166°
2026-04-24 14:10 -33.93087 151.17623 34 ft 1 kts 167°
2026-04-24 14:10 -33.93081 151.17622 34 ft 1 kts 168°
2026-04-24 14:11 -33.93071 151.17620 34 ft 4 kts 171°
2026-04-24 14:11 -33.93046 151.17618 35 ft 3 kts 179°
2026-04-24 14:11 -33.93016 151.17651 34 ft 0 kts 265°
2026-04-24 14:12 -33.93016 151.17660 34 ft 2 kts 274°
2026-04-24 14:12 -33.93019 151.17677 32 ft 2 kts 282°
2026-04-24 14:12 -33.93020 151.17679 32 ft 0 kts 283°
2026-04-24 14:14 -33.93010 151.17625 32 ft 10 kts 282°
2026-04-24 14:15 -33.92999 151.17561 32 ft 9 kts 281°
2026-04-24 14:15 -33.92988 151.17489 35 ft 9 kts 279°
2026-04-24 14:15 -33.92976 151.17408 28 ft 5 kts 282°
2026-04-24 14:15 -33.92969 151.17366 27 ft 2 kts 281°
2026-04-24 14:16 -33.92965 151.17344 30 ft 1 kts 281°
2026-04-24 14:16 -33.92965 151.17341 30 ft 0 kts 281°
2026-04-24 14:17 -33.92957 151.17254 28 ft 10 kts 266°
2026-04-24 14:17 -33.92995 151.17190 28 ft 10 kts 202°
2026-04-24 14:17 -33.93314 151.17258 29 ft 76 kts 168°
2026-04-24 14:18 -33.94091 151.17455 27 ft 146 kts 168°
2026-04-24 14:18 -33.95217 151.17759 99 ft 182 kts 171°
2026-04-24 14:18 -33.96474 151.18020 552 ft 186 kts 179°
2026-04-24 14:18 -33.97773 151.17978 1010 ft 188 kts 188°
2026-04-24 14:19 -33.99041 151.17746 1642 ft 182 kts 187°
2026-04-24 14:19 -34.00334 151.17583 1942 ft 193 kts 184°
2026-04-24 14:19 -34.01715 151.17504 2059 ft 204 kts 181°
2026-04-24 14:19 -34.03162 151.17621 2115 ft 214 kts 168°
2026-04-24 14:20 -34.04635 151.18123 2186 ft 228 kts 162°
2026-04-24 14:20 -34.06237 151.18685 2476 ft 249 kts 163°
2026-04-24 14:20 -34.07966 151.19268 2933 ft 262 kts 163°
2026-04-24 14:20 -34.09725 151.19845 3690 ft 263 kts 163°
2026-04-24 14:21 -34.11507 151.20439 4410 ft 266 kts 163°
2026-04-24 14:21 -34.13306 151.21035 5095 ft 271 kts 163°
2026-04-24 14:21 -34.15115 151.21639 5766 ft 274 kts 163°
2026-04-24 14:21 -34.16966 151.22263 6480 ft 277 kts 163°
2026-04-24 14:22 -34.18866 151.22706 7145 ft 283 kts 180°
2026-04-24 14:22 -34.20781 151.22170 7860 ft 286 kts 206°
2026-04-24 14:22 -34.23660 151.18800 9210 ft 294 kts 231°
2026-04-24 14:23 -34.24894 151.16815 9879 ft 298 kts 239°
2026-04-24 14:23 -34.25584 151.14448 10535 ft 301 kts 264°
2026-04-24 14:23 -34.25449 151.11884 10871 ft 315 kts 283°
2026-04-24 14:23 -34.24882 151.09295 11203 ft 326 kts 287°
2026-04-24 14:24 -34.23994 151.06771 11737 ft 328 kts 305°
2026-04-24 14:24 -34.22391 151.04822 12307 ft 329 kts 328°
2026-04-24 14:24 -34.20288 151.03753 12890 ft 328 kts 349°
2026-04-24 14:24 -34.18030 151.03255 13429 ft 332 kts 352°
2026-04-24 14:25 -34.15733 151.02795 13992 ft 335 kts 351°
2026-04-24 14:25 -34.13421 151.02313 14527 ft 339 kts 351°
2026-04-24 14:25 -34.11105 151.01772 15043 ft 342 kts 347°
2026-04-24 14:25 -34.08792 151.01010 15556 ft 345 kts 345°
2026-04-24 14:26 -34.06500 151.00244 16048 ft 348 kts 346°
2026-04-24 14:26 -34.04159 150.99466 16550 ft 351 kts 346°
2026-04-24 14:26 -34.01800 150.98686 17069 ft 353 kts 345°
2026-04-24 14:26 -33.99528 150.97527 17528 ft 357 kts 326°
2026-04-24 14:27 -33.97721 150.95474 18037 ft 360 kts 305°
2026-04-24 14:27 -33.96496 150.92830 18435 ft 366 kts 295°
2026-04-24 14:27 -33.95410 150.89995 18557 ft 378 kts 294°
2026-04-24 14:27 -33.94304 150.87065 18738 ft 389 kts 294°
2026-04-24 14:28 -33.93153 150.84098 19134 ft 392 kts 295°
2026-04-24 14:28 -33.91974 150.81127 19532 ft 395 kts 295°
2026-04-24 14:28 -33.90771 150.78142 19931 ft 397 kts 295°
2026-04-24 14:28 -33.89555 150.75142 20328 ft 400 kts 295°
2026-04-24 14:29 -33.88334 150.72125 20689 ft 403 kts 295°
2026-04-24 14:29 -33.87104 150.69082 21046 ft 405 kts 295°
2026-04-24 14:29 -33.85856 150.66036 21423 ft 407 kts 295°
2026-04-24 14:29 -33.84592 150.62964 21805 ft 410 kts 295°
2026-04-24 14:30 -33.83757 150.60921 22065 ft 412 kts 295°
2026-04-24 14:30 -33.82079 150.56804 22555 ft 415 kts 295°
2026-04-24 14:30 -33.80803 150.53675 22933 ft 418 kts 295°
2026-04-24 14:30 -33.79518 150.50530 23311 ft 421 kts 295°
2026-04-24 14:31 -33.78221 150.47359 23676 ft 423 kts 295°
2026-04-24 14:31 -33.76915 150.44171 24062 ft 425 kts 295°
2026-04-24 14:31 -33.75604 150.40974 24364 ft 428 kts 295°
2026-04-24 14:31 -33.74283 150.37758 24662 ft 431 kts 295°
2026-04-24 14:32 -33.72950 150.34526 24938 ft 433 kts 295°
2026-04-24 14:32 -33.71610 150.31269 25202 ft 436 kts 294°
2026-04-24 14:32 -33.70472 150.27898 25492 ft 437 kts 286°
2026-04-24 14:32 -33.69560 150.24452 25786 ft 439 kts 286°
2026-04-24 14:33 -33.68624 150.20949 26104 ft 442 kts 286°
2026-04-24 14:33 -33.67673 150.17427 26422 ft 445 kts 286°
2026-04-24 14:33 -33.66711 150.13882 26817 ft 446 kts 286°
2026-04-24 14:33 -33.65743 150.10328 27147 ft 450 kts 285°
2026-04-24 14:34 -33.64765 150.06744 27490 ft 453 kts 285°
2026-04-24 14:34 -33.63779 150.03138 27858 ft 456 kts 285°
2026-04-24 14:34 -33.62798 149.99551 28228 ft 459 kts 285°
2026-04-24 14:34 -33.61797 149.95900 28559 ft 462 kts 285°
2026-04-24 14:35 -33.60788 149.92223 28906 ft 466 kts 285°
2026-04-24 14:35 -33.59770 149.88518 29257 ft 469 kts 285°
2026-04-24 14:35 -33.58748 149.84807 29700 ft 469 kts 285°
2026-04-24 14:35 -33.57713 149.81069 29996 ft 473 kts 285°
2026-04-24 14:36 -33.56678 149.77310 30340 ft 476 kts 285°
2026-04-24 14:36 -33.55634 149.73522 30694 ft 479 kts 285°
2026-04-24 14:36 -33.54582 149.69714 31041 ft 481 kts 285°
2026-04-24 14:36 -33.53525 149.65896 31375 ft 484 kts 284°
2026-04-24 14:37 -33.52463 149.62064 31708 ft 486 kts 284°
2026-04-24 14:37 -33.51390 149.58202 32096 ft 487 kts 284°
2026-04-24 14:37 -33.50333 149.54405 32503 ft 487 kts 284°
2026-04-24 14:37 -33.49255 149.50531 32764 ft 491 kts 284°
2026-04-24 14:38 -33.48171 149.46644 33093 ft 493 kts 284°
2026-04-24 14:38 -33.47081 149.42738 33425 ft 495 kts 284°
2026-04-24 14:38 -33.45983 149.38812 33744 ft 498 kts 284°
2026-04-24 14:38 -33.44881 149.34874 34067 ft 500 kts 284°
2026-04-24 14:39 -33.43770 149.30912 34384 ft 503 kts 284°
2026-04-24 14:39 -33.42652 149.26931 34512 ft 509 kts 284°
2026-04-24 14:39 -33.41528 149.22925 34492 ft 517 kts 284°
2026-04-24 14:40 -33.39242 149.14824 34492 ft 513 kts 284°
2026-04-24 14:40 -33.36952 149.06725 34493 ft 514 kts 284°
2026-04-24 14:41 -33.34656 148.98625 34483 ft 511 kts 285°
2026-04-24 14:41 -33.32371 148.90582 34471 ft 511 kts 285°
2026-04-24 14:42 -33.30463 148.83884 34469 ft 511 kts 285°
2026-04-24 14:42 -33.27792 148.74533 34461 ft 511 kts 285°
2026-04-24 14:43 -33.25491 148.66505 34476 ft 510 kts 285°
2026-04-24 14:43 -33.23185 148.58481 34467 ft 510 kts 285°
2026-04-24 14:44 -33.20878 148.50473 34460 ft 509 kts 285°
2026-04-24 14:44 -33.18570 148.42486 34460 ft 507 kts 285°
2026-04-24 14:45 -33.15521 148.31968 34445 ft 506 kts 285°
2026-04-24 14:45 -33.11365 148.20475 34426 ft 511 kts 298°
2026-04-24 14:45 -33.03637 148.06259 34415 ft 511 kts 300°
2026-04-24 14:46 -32.88128 147.77773 34431 ft 511 kts 300°
2026-04-24 14:46 -31.68648 145.33755 34299 ft 25736 kts 300°
2026-04-24 14:46 -28.08216 138.12531 34434 ft 26161 kts 300°
2026-04-24 14:46 -24.52764 131.29029 34434 ft 24901 kts 296°
2026-04-24 14:47 -22.44997 126.79390 34434 ft 25116 kts 296°
2026-04-24 14:47 -21.48809 124.73665 34129 ft 427 kts 296°
2026-04-24 14:47 -21.45803 124.67602 34464 ft 375 kts 296°
2026-04-24 14:47 -21.43393 124.63038 34590 ft 338 kts 297°
2026-04-24 14:48 -21.41310 124.58615 33994 ft 328 kts 294°
2026-04-24 14:48 -21.39351 124.54218 33215 ft 322 kts 294°
2026-04-24 14:48 -21.37506 124.49926 32495 ft 316 kts 293°
2026-04-24 14:48 -21.35971 124.46036 32630 ft 283 kts 291°
2026-04-24 14:49 -21.34420 124.41933 31016 ft 309 kts 291°
2026-04-24 14:49 -21.33187 124.38531 29790 ft 326 kts 290°
2026-04-24 14:49 -21.32375 124.36223 28954 ft 336 kts 290°
2026-04-24 14:49 -21.31554 124.33834 28167 ft 345 kts 290°
2026-04-24 14:50 -21.30765 124.31491 27533 ft 349 kts 290°
2026-04-24 14:50 -21.30617 124.31047 27414 ft 350 kts 290°
2026-04-24 14:50 -21.29798 124.28551 26765 ft 355 kts 289°
2026-04-24 14:51 -21.29533 124.27733 26565 ft 356 kts 289°
2026-04-24 14:51 -21.28728 124.25205 25959 ft 359 kts 289°
2026-04-24 14:51 -21.27943 124.22684 25464 ft 359 kts 289°
2026-04-24 14:51 -21.27166 124.20120 24973 ft 359 kts 288°
2026-04-24 14:52 -21.26418 124.17570 24490 ft 359 kts 289°
2026-04-24 14:52 -21.25676 124.15022 24022 ft 362 kts 289°
2026-04-24 14:52 -21.24901 124.12449 24102 ft 356 kts 291°
2026-04-24 14:52 -21.01041 123.59897 24543 ft 18844 kts 304°
2026-04-24 14:53 -20.12899 122.23519 33768 ft 26241 kts 304°
2026-04-24 14:53 -19.23436 120.65227 33282 ft 26326 kts 300°
2026-04-24 14:53 -19.01374 120.25246 32994 ft 325 kts 302°